Steamboat Springs, CO

8:00 PM MST on December 04, 2016 (GMT -0700)
Mount Werner

Weather History for K3MW - September, 2012

Change the Weather History Date:

Sunday, September 30, 2012

  Actual Average (KSBS) Record (KSBS)
Temperature  
Mean Temperature 48 °F -  
Max Temperature 53 °F 69 °F 82 °F (1957)
Min Temperature 42 °F 28 °F 13 °F (1985)
Degree Days  
Heating Degree Days 18    
Moisture  
Dew Point 27 °F    
Average Humidity 47    
Maximum Humidity 61    
Minimum Humidity 30    
Precipitation  
Precipitation 0.00 in - - ()
Sea Level Pressure  
Sea Level Pressure 30.33 in    
Wind  
Wind Speed 8 mph (WNW)    
Max Wind Speed 13 mph    
Max Gust Speed 22 mph    
Visibility 10 miles    
Events Rain    
Averages and records for this station are not official NWS values.
T = Trace of Precipitation, MM = Missing Value Source: NWS Daily Summary

Daily Weather History Graph

Daily Weather History Graph

Search for Another Location

Airport or City:

Trip Planner

Search our weather history database for the weather conditions in past years. The results will help you decide how hot, cold, wet, or windy it might be!

Date:

Astronomy

Sep. 30, 2012 Rise Set
Actual Time 7:02 AM MDT 6:49 PM MDT
Civil Twilight 6:35 AM MDT 7:17 PM MDT
Nautical Twilight 6:04 AM MDT 7:48 PM MDT
Astronomical Twilight 5:32 AM MDT 8:20 PM MDT
Moon 6:54 PM MDT (9/30) 7:36 AM MDT (9/30)
Length of Visible Light 12h 41m
Length of Day
11h 46m
Full, 100% of the Moon is Illuminated
Sep 30
Full
Oct 8
Last Quarter
Oct 15
New
Oct 21
First Quarter
Oct 29
Full

Hourly Weather History & Observations

Time (MDT) Temp. Windchill Dew Point Humidity Pressure Visibility Wind Dir Wind Speed Gust Speed Precip Events Conditions
12:18 AM 44.6 °F 40.7 °F 28.4 °F 53% 30.32 in 10.0 mi WSW 6.9 mph - N/A   Scattered Clouds
12:41 AM 44.6 °F 40.2 °F 28.4 °F 53% 30.31 in 10.0 mi WSW 8.1 mph - N/A   Scattered Clouds
1:00 AM 44.6 °F 39.7 °F 28.4 °F 53% 30.31 in 10.0 mi WSW 9.2 mph - N/A   Scattered Clouds
1:18 AM 44.6 °F 40.2 °F 28.4 °F 53% 30.31 in 10.0 mi WSW 8.1 mph - N/A   Scattered Clouds
1:40 AM 44.6 °F 40.7 °F 28.4 °F 53% 30.31 in 10.0 mi West 6.9 mph - N/A   Mostly Cloudy
1:59 AM 44.6 °F 40.2 °F 28.4 °F 53% 30.31 in 10.0 mi West 8.1 mph - N/A   Mostly Cloudy
2:19 AM 44.6 °F 40.2 °F 28.4 °F 53% 30.31 in 10.0 mi WSW 8.1 mph - N/A   Scattered Clouds
2:39 AM 44.6 °F 39.7 °F 28.4 °F 53% 30.31 in 10.0 mi West 9.2 mph - N/A   Scattered Clouds
2:59 AM 42.8 °F 38.6 °F 28.4 °F 57% 30.31 in 10.0 mi West 6.9 mph - N/A   Mostly Cloudy
3:19 AM 42.8 °F 38.6 °F 28.4 °F 57% 30.30 in 10.0 mi West 6.9 mph - N/A   Scattered Clouds
4:01 AM 42.8 °F 37.0 °F 30.2 °F 61% 30.30 in 10.0 mi West 10.4 mph - N/A   Clear
4:21 AM 42.8 °F 37.5 °F 30.2 °F 61% 30.30 in 10.0 mi West 9.2 mph - N/A   Clear
4:39 AM 42.8 °F 40.1 °F 30.2 °F 61% 30.30 in 10.0 mi NW 4.6 mph - N/A   Clear
4:58 AM 42.8 °F 38.6 °F 30.2 °F 61% 30.30 in 10.0 mi NW 6.9 mph - N/A   Clear
5:19 AM 42.8 °F 39.3 °F 30.2 °F 61% 30.30 in 10.0 mi NW 5.8 mph - N/A   Clear
5:39 AM 42.8 °F 38.6 °F 30.2 °F 61% 30.30 in 10.0 mi NW 6.9 mph - N/A   Clear
5:59 AM 42.8 °F 38.0 °F 30.2 °F 61% 30.30 in 10.0 mi WNW 8.1 mph - N/A   Clear
6:18 AM 42.8 °F 37.5 °F 28.4 °F 57% 30.30 in 10.0 mi NW 9.2 mph - N/A   Clear
6:39 AM 42.8 °F 37.0 °F 28.4 °F 57% 30.31 in 10.0 mi NW 10.4 mph - N/A   Clear
6:58 AM 42.8 °F 37.0 °F 28.4 °F 57% 30.31 in 10.0 mi NW 10.4 mph - N/A   Clear
7:19 AM 42.8 °F 38.0 °F 30.2 °F 61% 30.32 in 10.0 mi NW 8.1 mph - N/A   Scattered Clouds
7:39 AM 42.8 °F 39.3 °F 30.2 °F 61% 30.32 in 10.0 mi NW 5.8 mph - N/A   Scattered Clouds
7:59 AM 42.8 °F 38.0 °F 30.2 °F 61% 30.33 in 10.0 mi WNW 8.1 mph - N/A   Clear
8:19 AM 42.8 °F 38.6 °F 30.2 °F 61% 30.33 in 10.0 mi NW 6.9 mph - N/A   Clear
8:38 AM 42.8 °F 38.6 °F 30.2 °F 61% 30.34 in 10.0 mi NW 6.9 mph - N/A   Clear
8:59 AM 44.6 °F 40.2 °F 30.2 °F 57% 30.34 in 10.0 mi NW 8.1 mph - N/A   Clear
9:20 AM 44.6 °F 42.2 °F 30.2 °F 57% 30.35 in 10.0 mi NW 4.6 mph - N/A   Clear
9:39 AM 44.6 °F 43.1 °F 30.2 °F 57% 30.35 in 10.0 mi NW 3.5 mph - N/A   Clear
9:59 AM 46.4 °F 45.2 °F 30.2 °F 53% 30.36 in 10.0 mi NW 3.5 mph - N/A   Clear
10:19 AM 46.4 °F 43.5 °F 30.2 °F 53% 30.36 in 10.0 mi NW 5.8 mph - N/A   Clear
10:39 AM 46.4 °F 42.4 °F 30.2 °F 53% 30.36 in 10.0 mi WNW 8.1 mph - N/A   Clear
11:00 AM 46.4 °F 42.4 °F 30.2 °F 53% 30.37 in 10.0 mi WNW 8.1 mph - N/A   Clear
11:19 AM 48.2 °F - 30.2 °F 50% 30.37 in 10.0 mi WNW 9.2 mph - N/A   Clear
11:38 AM 50.0 °F - 30.2 °F 47% 30.36 in 10.0 mi West 10.4 mph - N/A   Clear
11:59 AM 50.0 °F - 30.2 °F 47% 30.36 in 10.0 mi West 6.9 mph - N/A   Clear
12:19 PM 50.0 °F - 30.2 °F 47% 30.36 in 10.0 mi West 5.8 mph - N/A   Clear
12:40 PM 51.8 °F - 28.4 °F 41% 30.36 in 10.0 mi West 9.2 mph - N/A   Scattered Clouds
12:58 PM 51.8 °F - 28.4 °F 41% 30.35 in 10.0 mi West 8.1 mph - N/A   Scattered Clouds
1:19 PM 51.8 °F - 28.4 °F 41% 30.34 in 10.0 mi NW 8.1 mph 17.3 mph N/A   Mostly Cloudy
1:59 PM 51.8 °F - 24.8 °F 35% 30.33 in 10.0 mi WNW 10.4 mph 17.3 mph N/A   Scattered Clouds
2:19 PM 50.0 °F - 28.4 °F 43% 30.33 in 10.0 mi WNW 12.7 mph 19.6 mph N/A   Mostly Cloudy
2:41 PM 53.6 °F - 26.6 °F 35% 30.33 in 10.0 mi West 9.2 mph 17.3 mph N/A   Clear
2:59 PM 53.6 °F - 26.6 °F 35% 30.34 in 10.0 mi WNW 10.4 mph 21.9 mph N/A   Mostly Cloudy
3:19 PM 53.6 °F - 28.4 °F 38% 30.33 in 10.0 mi West 9.2 mph - N/A   Mostly Cloudy
3:38 PM 50.0 °F - 28.4 °F 43% 30.34 in 10.0 mi West 9.2 mph - N/A   Mostly Cloudy
3:58 PM 46.4 °F 42.9 °F 30.2 °F 53% 30.34 in 10.0 mi West 6.9 mph - N/A Rain Light Rain
4:19 PM 50.0 °F - 28.4 °F 43% 30.33 in 10.0 mi West 8.1 mph 19.6 mph N/A   Overcast
4:38 PM 50.0 °F - 26.6 °F 40% 30.33 in 10.0 mi West 9.2 mph 17.3 mph N/A   Overcast
5:00 PM 50.0 °F - 26.6 °F 40% 30.33 in 10.0 mi Calm Calm - N/A   Overcast
5:19 PM 50.0 °F - 24.8 °F 37% 30.33 in 10.0 mi West 4.6 mph - N/A   Mostly Cloudy
5:39 PM 51.8 °F - 21.2 °F 30% 30.33 in 10.0 mi West 9.2 mph - N/A   Mostly Cloudy
6:00 PM 50.0 °F - 26.6 °F 40% 30.34 in 10.0 mi NW 6.9 mph - N/A   Mostly Cloudy
6:18 PM 50.0 °F - 24.8 °F 37% 30.34 in 10.0 mi NNW 8.1 mph - N/A   Overcast
6:40 PM 50.0 °F - 23.0 °F 35% 30.34 in 10.0 mi NNW 6.9 mph - N/A   Overcast
6:59 PM 50.0 °F - 23.0 °F 35% 30.34 in 10.0 mi NNW 6.9 mph - N/A   Overcast
7:18 PM 50.0 °F - 23.0 °F 35% 30.35 in 10.0 mi NW 8.1 mph - N/A   Mostly Cloudy
7:39 PM 50.0 °F - 23.0 °F 35% 30.35 in 10.0 mi NW 9.2 mph - N/A   Scattered Clouds
7:58 PM 50.0 °F - 23.0 °F 35% 30.35 in 10.0 mi NW 9.2 mph - N/A   Overcast
8:19 PM 50.0 °F - 23.0 °F 35% 30.35 in 10.0 mi NW 10.4 mph - N/A   Scattered Clouds
8:39 PM 48.2 °F - 23.0 °F 37% 30.35 in 10.0 mi WNW 8.1 mph - N/A   Scattered Clouds
9:00 PM 48.2 °F - 23.0 °F 37% 30.36 in 10.0 mi WNW 8.1 mph - N/A   Scattered Clouds
9:19 PM 48.2 °F - 23.0 °F 37% 30.36 in 10.0 mi West 9.2 mph - N/A   Scattered Clouds
9:39 PM 48.2 °F - 23.0 °F 37% 30.36 in 10.0 mi West 8.1 mph - N/A   Clear
10:00 PM 48.2 °F - 23.0 °F 37% 30.36 in 10.0 mi WNW 8.1 mph - N/A   Scattered Clouds
10:22 PM 46.4 °F 42.4 °F 23.0 °F 40% 30.36 in 10.0 mi WNW 8.1 mph - N/A   Scattered Clouds
10:40 PM 48.2 °F - 23.0 °F 37% 30.36 in 10.0 mi WNW 5.8 mph - N/A   Mostly Cloudy
11:01 PM 48.2 °F - 23.0 °F 37% 30.35 in 10.0 mi West 5.8 mph - N/A   Mostly Cloudy
11:21 PM 48.2 °F - 23.0 °F 37% 30.35 in 10.0 mi West 5.8 mph - N/A   Mostly Cloudy
11:42 PM 48.2 °F - 23.0 °F 37% 30.35 in 10.0 mi WNW 5.8 mph - N/A   Overcast